KC8BSD Weather Reports


time (UTC)temp
C
wind
direction
speed
KPH
gust
KPH
rain 1hr
cm
rain 24hr
cm
rain mn
cm
humidity
%
barometer
mb
20260502234652 8 62 1.6 3.2 0.00 0.00 0.00 49 1017.0
20260502234149 8 253 0.0 0.0 0.00 0.00 0.00 50 1017.1
20260502233644 8 23 1.6 1.6 0.00 0.00 0.00 48 1017.1
20260502233136 8 20 3.2 3.2 0.00 0.00 0.00 48 1016.9
20260502232632 8 359 1.6 3.2 0.00 0.00 0.00 46 1017.0
20260502232130 8 257 1.6 1.6 0.00 0.00 0.00 48 1017.2
20260502231626 8 40 3.2 3.2 0.00 0.00 0.00 47 1017.2
20260502231124 8 45 3.2 3.2 0.00 0.00 0.00 48 1017.1
20260502230622 8 256 1.6 1.6 0.00 0.00 0.00 48 1017.2
20260502230120 8 241 4.8 4.8 0.00 0.00 0.00 46 1017.1
20260502225615 8 338 4.8 8.0 0.00 0.00 0.00 46 1017.3
20260502225113 8 324 1.6 1.6 0.00 0.00 0.00 45 1017.3
20260502224609 8 46 1.6 3.2 0.00 0.00 0.00 46 1017.4
20260502224106 8 299 3.2 4.8 0.00 0.00 0.00 46 1017.2
20260502223604 8 52 4.8 4.8 0.00 0.00 0.00 46 1017.3
20260502223102 9 258 0.0 1.6 0.00 0.00 0.00 46 1017.5
20260502222559 8 262 1.6 1.6 0.00 0.00 0.00 46 1017.2
20260502222055 8 54 3.2 3.2 0.00 0.00 0.00 46 1017.4
20260502221551 8 46 4.8 4.8 0.00 0.00 0.00 46 1017.4
20260502221049 8 252 1.6 1.6 0.00 0.00 0.00 46 1017.3
20260502220544 8 16 3.2 3.2 0.00 0.00 0.00 45 1017.3
20260502220041 8 46 8.0 11.3 0.00 0.00 0.00 45 1017.2
20260502215538 8 272 1.6 3.2 0.00 0.00 0.00 45 1017.2
20260502215035 8 333 3.2 4.8 0.00 0.00 0.00 45 1017.5
20260502214532 10 48 4.8 4.8 0.00 0.00 0.00 44 1017.3
20260502214030 10 357 3.2 3.2 0.00 0.00 0.00 43 1017.4
20260502213526 8 334 4.8 4.8 0.00 0.00 0.00 45 1017.4
20260502213024 8 278 0.0 1.6 0.00 0.00 0.00 46 1017.7
20260502212523 9 257 1.6 1.6 0.00 0.00 0.00 45 1017.5
20260502212020 9 251 1.6 1.6 0.00 0.00 0.00 46 1017.6
20260502211515 8 265 1.6 3.2 0.00 0.00 0.00 46 1017.5
20260502211013 8 41 3.2 3.2 0.00 0.00 0.00 46 1017.5
20260502210510 10 92 4.8 8.0 0.00 0.00 0.00 45 1017.4
20260502210007 8 273 1.6 1.6 0.00 0.00 0.00 46 1017.6
20260502205503 8 26 6.4 8.0 0.00 0.00 0.00 45 1017.5
20260502205000 8 206 0.0 1.6 0.00 0.00 0.00 48 1017.7
20260502204457 9 239 1.6 3.2 0.00 0.00 0.00 47 1017.7
20260502203955 8 53 4.8 8.0 0.00 0.00 0.00 48 1017.7
20260502203452 8 46 4.8 8.0 0.00 0.00 0.00 44 1017.6
20260502202948 8 162 1.6 1.6 0.00 0.00 0.00 50 1017.7
20260502202445 8 337 6.4 9.7 0.00 0.00 0.00 46 1017.8
20260502201943 8 295 1.6 3.2 0.00 0.00 0.00 46 1017.7
20260502201439 8 87 6.4 8.0 0.00 0.00 0.00 46 1017.9
20260502200936 8 30 3.2 4.8 0.00 0.00 0.00 47 1017.7
20260502200431 9 301 4.8 8.0 0.00 0.00 0.00 45 1018.0
20260502195929 8 307 4.8 8.0 0.00 0.00 0.00 46 1018.1
20260502195426 8 57 8.0 9.7 0.00 0.00 0.00 46 1018.1
20260502194923 8 300 1.6 1.6 0.00 0.00 0.00 47 1018.1
20260502194420 8 24 8.0 11.3 0.00 0.00 0.00 47 1018.2
20260502193915 8 265 0.0 0.0 0.00 0.00 0.00 47 1018.4
20260502193413 8 320 1.6 3.2 0.00 0.00 0.00 45 1018.3
20260502192908 8 44 4.8 4.8 0.00 0.00 0.00 45 1018.3
20260502192405 8 21 1.6 1.6 0.00 0.00 0.00 48 1018.6
20260502191902 8 57 3.2 3.2 0.00 0.00 0.00 47 1018.7
20260502191400 8 76 3.2 8.0 0.00 0.00 0.00 49 1018.6
20260502190858 8 279 1.6 3.2 0.00 0.00 0.00 46 1018.3
20260502190354 10 40 3.2 3.2 0.00 0.00 0.00 44 1018.7
20260502185850 10 69 4.8 4.8 0.00 0.00 0.00 43 1018.6
20260502185346 10 280 3.2 3.2 0.00 0.00 0.00 50 1018.6
20260502184843 8 71 3.2 4.8 0.00 0.00 0.00 48 1018.8
20260502184339 8 170 3.2 4.8 0.00 0.00 0.00 46 1018.5
20260502183835 9 342 3.2 3.2 0.00 0.00 0.00 45 1018.6
20260502183332 8 49 6.4 8.0 0.00 0.00 0.00 45 1018.6
20260502182827 8 2 0.0 1.6 0.00 0.00 0.00 46 1018.6
20260502182322 10 35 4.8 4.8 0.00 0.00 0.00 43 1018.7
20260502181819 11 284 3.2 4.8 0.00 0.00 0.00 43 1018.6
20260502181318 10 43 8.0 11.3 0.00 0.00 0.00 43 1018.6
20260502180816 8 50 4.8 4.8 0.00 0.00 0.00 43 1018.9
20260502180313 9 82 1.6 1.6 0.00 0.00 0.00 45 1018.7
20260502170226 8 270 3.2 4.8 0.00 0.00 0.00 47 1019.0
20260502164213 7 265 3.2 3.2 0.00 0.00 0.00 45 1019.3
20260502163708 7 112 6.4 8.0 0.00 0.00 0.00 47 1019.4
20260502163205 7 158 1.6 3.2 0.00 0.00 0.00 49 1019.4
20260502162702 7 23 4.8 4.8 0.00 0.00 0.00 46 1019.3
20260502162159 8 232 1.6 1.6 0.00 0.00 0.00 47 1019.3
20260502161656 8 108 1.6 3.2 0.00 0.00 0.00 45 1019.2
20260502161153 8 261 0.0 1.6 0.00 0.00 0.00 45 1019.3
20260502160651 8 35 4.8 9.7 0.00 0.00 0.00 46 1019.4
20260502160149 7 2 3.2 3.2 0.00 0.00 0.00 47 1019.4
20260502152104 7 283 1.6 1.6 0.00 0.00 0.00 49 1019.3
20260502151601 8 47 4.8 4.8 0.00 0.00 0.00 48 1019.3
20260502151058 7 0 4.8 4.8 0.00 0.00 0.00 49 1019.3
20260502150555 7 5 4.8 8.0 0.00 0.00 0.00 49 1019.4
20260502130440 5 242 1.6 1.6 0.00 0.00 0.00 64 1019.4
20260502123423 3 316 3.2 3.2 0.00 0.00 0.00 67 1019.4
20260502122920 3 345 3.2 4.8 0.00 0.00 0.00 68 1019.4
20260502122416 3 257 1.6 1.6 0.00 0.00 0.00 68 1019.4
20260502121914 3 52 9.7 12.9 0.00 0.00 0.00 67 1019.4
20260502121411 3 297 1.6 1.6 0.00 0.00 0.00 68 1019.3
20260502120909 3 32 4.8 4.8 0.00 0.00 0.00 69 1019.2
20260502120405 3 347 3.2 4.8 0.00 0.00 0.00 69 1019.1
20260502115902 2 294 0.0 0.0 0.00 0.00 0.00 71 1019.4
20260502115359 2 47 4.8 4.8 0.00 0.00 0.00 70 1019.2
20260502114855 2 60 1.6 3.2 0.00 0.00 0.00 71 1019.2
20260502114352 2 284 0.0 1.6 0.00 0.00 0.00 71 1019.3
20260502113849 2 255 0.0 0.0 0.00 0.00 0.00 72 1019.1
20260502113347 2 27 0.0 1.6 0.00 0.00 0.00 72 1019.2
20260502112845 2 253 0.0 0.0 0.00 0.00 0.00 73 1019.2
20260502112342 1 10 4.8 4.8 0.00 0.00 0.00 74 1019.1
20260502111840 1 285 0.0 1.6 0.00 0.00 0.00 76 1019.1
20260502111337 1 55 3.2 4.8 0.00 0.00 0.00 76 1019.0
20260502110834 1 290 0.0 1.6 0.00 0.00 0.00 77 1018.7
20260502110332 1 279 0.0 0.0 0.00 0.00 0.00 77 1018.9
20260502105829 1 282 0.0 0.0 0.00 0.00 0.00 77 1018.9
20260502105326 1 282 0.0 0.0 0.00 0.00 0.00 78 1019.1
20260502104824 0 308 0.0 0.0 0.00 0.00 0.00 78 1019.0
20260502104321 0 262 0.0 0.0 0.00 0.00 0.00 78 1019.1
20260502103818 0 266 0.0 0.0 0.00 0.00 0.00 79 1018.8
20260502103315 0 287 0.0 1.6 0.00 0.00 0.00 79 1018.9
20260502102813 0 268 0.0 0.0 0.00 0.00 0.00 78 1018.8
20260502102309 0 280 0.0 0.0 0.00 0.00 0.00 77 1018.7
20260502101807 1 264 0.0 0.0 0.00 0.00 0.00 76 1018.8
20260502101305 1 268 0.0 0.0 0.00 0.00 0.00 76 1018.8
20260502100803 1 22 1.6 1.6 0.00 0.00 0.00 76 1018.7
20260502100302 1 300 1.6 1.6 0.00 0.00 0.00 75 1018.8
20260502091236 2 260 0.0 0.0 0.00 0.00 0.00 72 1018.4
20260502090733 2 261 0.0 0.0 0.00 0.00 0.00 71 1018.7
20260502090229 2 271 0.0 0.0 0.00 0.00 0.00 71 1018.3
20260502071130 3 304 1.6 3.2 0.00 0.00 0.00 65 1018.1
20260502070628 3 279 1.6 3.2 0.00 0.00 0.00 66 1018.1
20260502070126 3 39 3.2 3.2 0.00 0.00 0.00 64 1017.9
20260502065624 3 265 0.0 0.0 0.00 0.00 0.00 65 1018.0
20260502065121 3 271 0.0 0.0 0.00 0.00 0.00 65 1017.9
20260502064620 3 277 0.0 0.0 0.00 0.00 0.00 65 1018.0
20260502064117 3 282 1.6 1.6 0.00 0.00 0.00 64 1018.2
20260502063614 3 272 1.6 1.6 0.00 0.00 0.00 66 1018.2
20260502063112 4 29 1.6 4.8 0.00 0.00 0.00 67 1018.1
20260502062609 4 280 1.6 1.6 0.00 0.00 0.00 66 1018.3
20260502062107 4 281 0.0 0.0 0.00 0.00 0.00 65 1018.1
20260502061604 4 277 0.0 0.0 0.00 0.00 0.00 65 1018.1
20260502061102 4 329 0.0 0.0 0.00 0.00 0.00 65 1018.4
20260502060556 4 275 0.0 1.6 0.00 0.00 0.00 64 1018.3
20260502060053 4 267 0.0 0.0 0.00 0.00 0.00 65 1018.3
20260502055551 4 261 0.0 0.0 0.00 0.00 0.00 65 1018.3
20260502055049 4 276 0.0 0.0 0.00 0.00 0.00 64 1018.4
20260502054548 4 343 0.0 1.6 0.00 0.00 0.00 65 1018.5
20260502054044 4 263 0.0 0.0 0.00 0.00 0.00 65 1018.3
20260502053541 4 253 0.0 0.0 0.00 0.00 0.00 64 1018.8
20260502053039 4 262 0.0 0.0 0.00 0.00 0.00 65 1018.5
20260502052538 4 269 0.0 0.0 0.00 0.00 0.00 65 1018.5
20260502052035 4 300 1.6 1.6 0.00 0.00 0.00 66 1018.5
20260502051533 4 265 1.6 3.2 0.00 0.00 0.00 65 1018.5
20260502051031 5 291 0.0 1.6 0.00 0.00 0.00 66 1018.4
20260502050526 5 2 1.6 3.2 0.00 0.00 0.00 64 1018.6
20260502050024 5 25 3.2 3.2 0.00 0.00 0.00 64 1018.3
20260502045520 5 266 0.0 0.0 0.00 0.00 0.00 64 1018.4
20260502045018 5 307 1.6 1.6 0.00 0.00 0.00 65 1018.2
20260502044514 5 263 0.0 0.0 0.00 0.00 0.00 67 1018.3
20260502044010 5 311 0.0 1.6 0.00 0.00 0.00 66 1018.1
20260502043508 4 267 0.0 0.0 0.00 0.00 0.00 68 1018.2
20260502043004 4 294 1.6 1.6 0.00 0.00 0.00 70 1018.2
20260502042459 4 262 0.0 0.0 0.00 0.00 0.00 70 1018.0
20260502041957 4 266 0.0 0.0 0.00 0.00 0.00 69 1018.1
20260502041455 4 260 0.0 0.0 0.00 0.00 0.00 71 1018.1
20260502040951 4 264 0.0 0.0 0.00 0.00 0.00 70 1017.9
20260502040448 4 262 0.0 0.0 0.00 0.00 0.00 69 1018.0
20260502035944 4 285 1.6 1.6 0.00 0.00 0.00 70 1018.0
20260502035440 4 225 1.6 1.6 0.00 0.00 0.00 69 1017.8
20260502034939 5 263 1.6 3.2 0.00 0.00 0.00 69 1017.8
20260502034437 4 263 0.0 1.6 0.00 0.00 0.00 69 1018.0
20260502033935 5 268 1.6 1.6 0.00 0.00 0.00 69 1017.9
20260502033432 5 353 1.6 1.6 0.00 0.00 0.00 70 1018.0
20260502032928 5 274 0.0 1.6 0.00 0.00 0.00 71 1017.6
20260502032425 5 306 4.8 4.8 0.00 0.00 0.00 70 1017.9
20260502031922 5 221 4.8 4.8 0.00 0.00 0.00 70 1017.5
20260502031421 5 261 0.0 0.0 0.00 0.00 0.00 69 1017.7
20260502030919 5 286 0.0 1.6 0.00 0.00 0.00 67 1017.6
20260502030417 5 21 1.6 3.2 0.00 0.00 0.00 67 1017.7
20260502025915 5 316 1.6 1.6 0.00 0.00 0.00 68 1017.8
20260502025411 5 263 0.0 0.0 0.00 0.00 0.00 68 1017.6
20260502024909 5 267 0.0 0.0 0.00 0.00 0.00 67 1017.5
20260502024407 5 315 1.6 1.6 0.00 0.00 0.00 67 1017.7
20260502023904 5 269 0.0 0.0 0.00 0.00 0.00 66 1017.6
20260502023402 5 338 1.6 3.2 0.00 0.00 0.00 66 1017.7
20260502022859 5 262 0.0 0.0 0.00 0.00 0.00 68 1017.6
20260502022355 5 256 0.0 0.0 0.00 0.00 0.00 68 1017.6
20260502021853 5 267 0.0 0.0 0.00 0.00 0.00 68 1017.5
20260502021350 5 257 0.0 0.0 0.00 0.00 0.00 68 1017.7
20260502020847 5 293 0.0 1.6 0.00 0.00 0.00 67 1017.5
20260502020345 5 302 1.6 1.6 0.00 0.00 0.00 68 1017.5
20260502015841 5 326 3.2 3.2 0.00 0.00 0.00 66 1017.6
20260502015338 6 250 0.0 1.6 0.00 0.00 0.00 66 1017.5
20260502014836 6 266 0.0 1.6 0.00 0.00 0.00 66 1017.3
20260502014333 6 245 1.6 1.6 0.00 0.00 0.00 65 1017.5
20260502013829 6 27 3.2 3.2 0.00 0.00 0.00 65 1017.3
20260502013325 6 341 1.6 1.6 0.00 0.00 0.00 65 1017.1
20260502012821 6 350 1.6 1.6 0.00 0.00 0.00 65 1017.4
20260502012319 6 38 3.2 4.8 0.00 0.00 0.00 64 1017.2
20260502011816 6 298 1.6 3.2 0.00 0.00 0.00 64 1017.3
20260502011312 6 263 1.6 1.6 0.00 0.00 0.00 65 1017.2
20260502010810 6 248 0.0 0.0 0.00 0.00 0.00 66 1017.0
20260502010306 6 271 1.6 1.6 0.00 0.00 0.00 65 1016.9
20260502005803 6 291 1.6 1.6 0.00 0.00 0.00 66 1016.9
20260502005301 6 16 3.2 3.2 0.00 0.00 0.00 65 1017.1
20260502004757 6 308 0.0 1.6 0.00 0.00 0.00 66 1017.1
20260502004253 6 271 0.0 0.0 0.00 0.00 0.00 65 1016.4
20260502003752 6 55 4.8 4.8 0.00 0.00 0.00 64 1016.9
20260502003248 6 36 1.6 3.2 0.00 0.00 0.00 64 1016.9
20260502002738 6 344 3.2 3.2 0.00 0.00 0.00 65 1016.9
20260502002236 6 258 0.0 1.6 0.00 0.00 0.00 65 1016.9
20260502001733 6 0 0.0 1.6 0.00 0.00 0.00 65 1016.8
20260502001231 6 311 1.6 1.6 0.00 0.00 0.00 65 1016.8
20260502000729 6 261 0.0 1.6 0.00 0.00 0.00 65 1016.7
20260502000227 6 7 3.2 3.2 0.00 0.00 0.00 64 1016.4
20260501235722 6 309 1.6 3.2 0.00 0.00 0.00 63 1016.8
20260501235218 6 42 4.8 8.0 0.00 0.00 0.00 64 1016.5